Regional Weather Roundup
Issued by NWS

Home | Current Version | Previous Version | Graphics & Text | Print | Product List | Glossary On
Versions: 1 2 3 4 5 6 7 8 9 10 11 12 13 14 15 16 17 18 19 20 21 22 23 24 25 26 27
000
ASUS45 KSLC 270410
RWRUT

UTAH REGIONAL WEATHER ROUNDUP
NATIONAL WEATHER SERVICE SALT LAKE CITY UT
1000 PM MDT TUE JUL 26 2016

UTZ001>011-023>025-270500-

NORTHERN UTAH

CITY           SKY/WX    TMP DP  RH WIND       PRES   REMARKS
BRIGHAM CITY     N/A     85  24  11 NW14      30.01R
HILL AFB       CLEAR     84  28  13 E3        30.05R
LOGAN          CLEAR     75  38  26 NW9       30.03R
OGDEN          CLEAR     82  31  15 NW8       30.01R
PROVO AIRPORT  CLEAR     81  46  30 S9        30.03R
SALT LAKE CITY CLEAR     87  31  13 S8        29.98R
VERNAL         CLOUDY    71  44  37 CALM      30.14R
WENDOVER       CLEAR     93  28  10 N14G21    30.02R
HEBER CITY     CLEAR     70  39  32 CALM      30.13R

$$

UTZ012>022-026-027-270500-

SOUTHERN/CENTRAL UTAH

CITY           SKY/WX    TMP DP  RH WIND       PRES   REMARKS
BLANDING       PTCLDY    74  47  37 NE17      30.26R
BRYCE CANYON   PTCLDY    57  41  55 CALM      30.34R
CEDAR CITY     CLEAR     84  39  20 S8        30.13R
DELTA          CLEAR     82  23  11 NE3       30.04R
MILFORD        CLEAR     82  43  25 S12       30.04R
MOAB/CYNLANDS  PTCLDY    84  41  21 E6        30.05R
PRICE          PTCLDY    74  33  22 N9        30.19R
ST GEORGE      CLEAR     95  46  18 SE7       29.89R HX  91

$$

REGIONAL REPORTS     COLORADO/ARIZONA

CITY           SKY/WX    TMP DP  RH WIND       PRES   REMARKS
CRAIG, CO      CLOUDY    67  43  41 SE5       30.24S
GRAND JUNCTION CLEAR     83  39  21 S8        30.11R
RIFLE          CLEAR     76  42  29 SE13      30.19R
MONTROSE       CLEAR     74  45  35 S6        30.21S
CORTEZ         CLOUDY    77  44  30 N3        30.20R
PAGE, AZ       CLEAR     90  40  17 SW7       30.02R
GRAND CANYON   PTCLDY    65  43  44 CALM      30.27R
KINGMAN        PTCLDY    93  48  21 S8        29.96R
FLAGSTAFF      MOCLDY    64  57  78 CALM      30.30R

$$

REGIONAL REPORTS    NEVADA/IDAHO/WYOMING

CITY           SKY/WX    TMP DP  RH WIND       PRES   REMARKS
LAS VEGAS, NV  PTCLDY   105  41  11 SW5       29.76R HX 100
ELY            CLEAR     72  14  11 W8        30.18R
ELKO           CLEAR     80  18  10 N6        30.10R
POCATELLO, ID  CLEAR     72  40  31 N6        30.06R
BURLEY         CLEAR     66  50  56 SW7       30.02R
EVANSTON, WY   CLEAR     70  17  13 SW9       30.26R
ROCK SPRINGS   CLOUDY    73  30  20 SW8       30.22R
KEMMERER         N/A    N/A N/A N/A N8        30.28R

$$




USA.gov is the U.S. government's official web portal to all federal, state and local government web resources and services.